Location: Praha
(50.0833°N, 14.4667°E)
Time: 14:00:40
(UTC+02:00)

ISS - Visible Passes

Search period start: 06 May 2021 00:00
Search period end: 16 May 2021 00:00
Orbit: 418 x 421 km, 51.6° (Epoch: 05 May)

Date Brightness Start Highest point End Pass type
(mag) Time Alt. Az. Time Alt. Az. Time Alt. Az.
06 May -3.6 02:48:19 56° SE 02:48:19 56° SE 02:51:28 10° ENE visible
06 May -3.4 04:21:35 10° W 04:24:57 66° N 04:28:21 10° E visible
07 May -1.9 02:02:24 23° E 02:02:24 23° E 02:03:58 10° E visible
07 May -3.6 03:35:20 21° W 03:37:29 73° N 03:40:53 10° ENE visible
08 May -3.8 02:49:24 56° W 02:50:02 86° NNW 02:53:26 10° ENE visible
08 May -3.4 04:23:37 10° WNW 04:27:00 67° N 04:30:22 10° E visible
09 May -3.1 02:03:25 48° E 02:03:25 48° E 02:06:00 10° ENE visible
09 May -3.4 03:36:21 11° W 03:39:31 64° N 03:42:53 10° E visible
10 May -1.6 01:17:25 19° E 01:17:25 19° E 01:18:32 10° ENE visible
10 May -3.4 02:50:21 27° W 02:52:02 66° N 02:55:24 10° E visible
10 May -3.7 04:25:36 10° WNW 04:28:59 87° NNE 04:32:23 10° ESE visible
11 May -3.6 02:04:19 69° NW 02:04:33 73° N 02:07:56 10° ENE visible
11 May -3.6 03:38:08 10° WNW 03:41:32 74° N 03:44:54 10° E visible
12 May -2.7 01:18:14 39° ENE 01:18:14 39° ENE 01:20:28 10° ENE visible
12 May -3.4 02:51:09 13° WNW 02:54:03 67° N 02:57:25 10° E visible
12 May -3.6 04:27:33 10° WNW 04:30:52 55° SSW 04:34:11 10° SE visible
13 May -1.6 00:32:03 18° ENE 00:32:03 18° ENE 00:33:01 10° ENE visible
13 May -3.4 02:04:58 28° WNW 02:06:33 64° N 02:09:55 10° E visible
13 May -3.9 03:40:05 10° WNW 03:43:27 75° SSW 03:46:50 10° ESE visible
14 May -3.4 01:18:34 56° NW 01:19:03 66° N 01:22:25 10° E visible
14 May -3.8 02:52:37 10° WNW 02:56:00 87° NNE 02:59:24 10° ESE visible
14 May -2.8 04:29:38 10° W 04:32:35 28° SW 04:35:31 10° SSE visible
14 May -3.4 22:51:38 10° SW 22:54:49 41° SSE 22:58:02 10° E visible
15 May -3.6 00:28:11 10° W 00:31:33 73° N 00:34:56 10° ENE visible
15 May -3.6 02:05:09 10° WNW 02:08:32 74° N 02:11:55 10° E visible
15 May -3.3 03:42:03 10° W 03:45:15 39° SSW 03:48:25 10° SE visible
15 May -2.9 22:04:31 10° SSW 22:07:29 29° SSE 22:10:27 10° E visible
15 May -3.8 23:40:42 10° WSW 23:44:05 85° N 23:47:28 10° ENE visible
